User: anonymous   Login
Location: Albany
(35.0000°S, 118.0000°E)
Time: 03:40:33
(UTC-04:00)
Language:

ERS-1 Rocket - Orbit

View from above orbital plane
View from above orbital plane
View from above satellite
View from above satellite

Ground track
Ground track

The orbit data is extracted from the following two-line orbital elements,

1 21610U 91050F   14304.71395160  .00000431  00000-0  15030-3 0  6390
2 21610 098.7311 332.2918 0002048 284.3253 212.4048 14.40386536221961
Epoch (UTC): 31 October 2014 17:08:05
Eccentricity: 0.0002048
inclination: 98.7311°
perigee height: 756 km
apogee height: 758 km
right ascension of ascending node: 332.2918°
argument of perigee: 284.3253°
revolutions per day: 14.40386536
mean anomaly at epoch: 212.4048°
orbit number at epoch: 22196

The dashed part of the orbit path shows where the satellite is in the earth's shadow,  

DLR